Time,TemperatureF,DewpointF,PressureIn,WindDirection,WindDirectionDegrees,WindSpeedMPH,WindSpeedGustMPH,Humidity,HourlyPrecipIn,Conditions,Clouds,dailyrainin,SoftwareType,DateUTC
2013-07-24 00:02:00,85.3,66.2,29.63,North,0,0.0,0.0,53,0.00,CLR,,0.00,WeatherDisplay:10.37,2013-07-24 05:02:00,
2013-07-24 00:07:00,85.3,66.2,29.63,North,0,0.0,0.0,53,0.00,CLR,,0.00,WeatherDisplay:10.37,2013-07-24 05:07:00,
2013-07-24 00:12:00,85.3,66.8,29.63,North,0,0.0,0.0,54,0.00,CLR,,0.00,WeatherDisplay:10.37,2013-07-24 05:12:00,
2013-07-24 00:17:00,85.3,66.8,29.63,North,0,0.0,0.0,54,0.00,CLR,,0.00,WeatherDisplay:10.37,2013-07-24 05:17:00,
2013-07-24 00:22:00,85.1,66.6,29.63,North,0,0.0,0.0,54,0.00,CLR,,0.00,WeatherDisplay:10.37,2013-07-24 05:22:00,
2013-07-24 00:27:00,84.9,66.9,29.62,North,0,0.0,0.0,55,0.00,CLR,,0.00,WeatherDisplay:10.37,2013-07-24 05:27:00,
2013-07-24 00:32:00,84.7,66.8,29.62,North,0,0.0,0.0,55,0.00,CLR,,0.00,WeatherDisplay:10.37,2013-07-24 05:32:00,
2013-07-24 00:37:00,84.4,67.0,29.62,North,0,0.0,0.0,56,0.00,CLR,,0.00,WeatherDisplay:10.37,2013-07-24 05:37:00,
2013-07-24 00:42:00,84.2,67.3,29.62,North,0,0.0,0.0,57,0.00,CLR,,0.00,WeatherDisplay:10.37,2013-07-24 05:42:00,
2013-07-24 00:47:00,84.2,67.3,29.61,North,0,0.0,0.0,57,0.00,CLR,,0.00,WeatherDisplay:10.37,2013-07-24 05:47:00,
2013-07-24 00:52:00,84.0,67.1,29.61,North,0,0.0,0.0,57,0.00,CLR,,0.00,WeatherDisplay:10.37,2013-07-24 05:52:00,
2013-07-24 00:57:00,83.8,67.0,29.62,North,0,0.0,0.0,57,0.00,CLR,,0.00,WeatherDisplay:10.37,2013-07-24 05:57:00,
2013-07-24 01:02:00,83.8,67.0,29.62,North,0,0.0,0.0,57,0.00,CLR,,0.00,WeatherDisplay:10.37,2013-07-24 06:02:00,
2013-07-24 01:07:00,83.7,66.8,29.62,North,0,0.0,0.0,57,0.00,CLR,,0.00,WeatherDisplay:10.37,2013-07-24 06:07:00,
2013-07-24 01:12:00,83.5,67.1,29.62,North,0,0.0,0.0,58,0.00,CLR,,0.00,WeatherDisplay:10.37,2013-07-24 06:12:00,
2013-07-24 01:17:00,83.3,66.5,29.62,North,0,0.0,0.0,57,0.00,CLR,,0.00,WeatherDisplay:10.37,2013-07-24 06:17:00,
2013-07-24 01:22:00,83.1,66.3,29.62,North,0,0.0,0.0,57,0.00,CLR,,0.00,WeatherDisplay:10.37,2013-07-24 06:22:00,
2013-07-24 01:27:00,83.1,66.3,29.62,North,0,0.0,0.0,57,0.00,CLR,,0.00,WeatherDisplay:10.37,2013-07-24 06:27:00,
2013-07-24 01:32:00,82.8,66.5,29.62,North,0,0.0,0.0,58,0.00,CLR,,0.00,WeatherDisplay:10.37,2013-07-24 06:32:00,
2013-07-24 01:37:00,82.6,66.8,29.62,North,0,0.0,0.0,59,0.00,CLR,,0.00,WeatherDisplay:10.37,2013-07-24 06:37:00,
2013-07-24 01:42:00,82.4,66.6,29.62,North,0,0.0,0.0,59,0.00,CLR,,0.00,WeatherDisplay:10.37,2013-07-24 06:42:00,
2013-07-24 01:47:00,82.2,66.5,29.62,North,0,0.0,0.0,59,0.00,CLR,,0.00,WeatherDisplay:10.37,2013-07-24 06:47:00,
2013-07-24 01:53:00,82.0,66.3,29.62,North,0,0.0,0.0,59,0.00,CLR,,0.00,WeatherDisplay:10.37,2013-07-24 06:53:00,
2013-07-24 01:58:00,81.9,66.6,29.62,North,0,0.0,0.0,60,0.00,CLR,,0.00,WeatherDisplay:10.37,2013-07-24 06:58:00,
2013-07-24 02:03:00,81.7,66.4,29.62,North,0,0.0,0.0,60,0.00,CLR,,0.00,WeatherDisplay:10.37,2013-07-24 07:03:00,
2013-07-24 02:08:00,81.7,66.4,29.63,North,0,0.0,0.0,60,0.00,CLR,,0.00,WeatherDisplay:10.37,2013-07-24 07:08:00,
2013-07-24 02:13:00,81.7,66.4,29.64,North,0,0.0,0.0,60,0.00,CLR,,0.00,WeatherDisplay:10.37,2013-07-24 07:13:00,
2013-07-24 02:18:00,81.5,66.8,29.64,North,0,0.0,0.0,61,0.00,CLR,,0.00,WeatherDisplay:10.37,2013-07-24 07:18:00,
2013-07-24 02:23:00,81.5,66.8,29.64,North,0,0.0,0.0,61,0.00,CLR,,0.00,WeatherDisplay:10.37,2013-07-24 07:23:00,
2013-07-24 02:28:00,81.5,66.8,29.64,North,0,0.0,0.0,61,0.00,CLR,,0.00,WeatherDisplay:10.37,2013-07-24 07:28:00,
2013-07-24 02:33:00,81.3,66.6,29.64,North,0,0.0,0.0,61,0.00,CLR,,0.00,WeatherDisplay:10.37,2013-07-24 07:33:00,
2013-07-24 02:38:00,81.3,66.6,29.65,North,0,0.0,0.0,61,0.00,CLR,,0.00,WeatherDisplay:10.37,2013-07-24 07:38:00,
2013-07-24 02:43:00,81.3,66.6,29.65,North,0,0.0,0.0,61,0.00,CLR,,0.00,WeatherDisplay:10.37,2013-07-24 07:43:00,
2013-07-24 02:48:00,81.1,66.4,29.65,North,0,0.0,0.0,61,0.00,CLR,,0.00,WeatherDisplay:10.37,2013-07-24 07:48:00,
2013-07-24 02:53:00,81.0,66.2,29.64,North,0,0.0,0.0,61,0.00,CLR,,0.00,WeatherDisplay:10.37,2013-07-24 07:53:00,
2013-07-24 02:58:00,81.0,66.7,29.64,North,0,0.0,0.0,62,0.00,CLR,,0.00,WeatherDisplay:10.37,2013-07-24 07:58:00,
2013-07-24 03:03:00,80.8,66.5,29.64,North,0,0.0,0.0,62,0.00,CLR,,0.00,WeatherDisplay:10.37,2013-07-24 08:03:00,
2013-07-24 03:08:00,80.6,66.8,29.64,North,0,0.0,0.0,63,0.00,CLR,,0.00,WeatherDisplay:10.37,2013-07-24 08:08:00,
2013-07-24 03:13:00,80.6,67.3,29.64,North,0,0.0,0.0,64,0.00,CLR,,0.00,WeatherDisplay:10.37,2013-07-24 08:13:00,
2013-07-24 03:18:00,80.4,67.1,29.63,North,0,0.0,0.0,64,0.00,CLR,,0.00,WeatherDisplay:10.37,2013-07-24 08:18:00,
2013-07-24 03:23:00,80.4,67.6,29.63,North,0,0.0,0.0,65,0.00,CLR,,0.00,WeatherDisplay:10.37,2013-07-24 08:23:00,
2013-07-24 03:28:00,80.2,67.4,29.63,North,0,0.0,0.0,65,0.00,CLR,,0.00,WeatherDisplay:10.37,2013-07-24 08:28:00,
2013-07-24 03:33:00,80.2,67.4,29.63,North,0,0.0,0.0,65,0.00,CLR,,0.00,WeatherDisplay:10.37,2013-07-24 08:33:00,
2013-07-24 03:38:00,80.2,67.8,29.63,North,0,0.0,0.0,66,0.00,CLR,,0.00,WeatherDisplay:10.37,2013-07-24 08:38:00,
2013-07-24 03:43:00,80.1,67.7,29.62,North,0,0.0,0.0,66,0.00,CLR,,0.00,WeatherDisplay:10.37,2013-07-24 08:43:00,
2013-07-24 03:48:00,79.9,67.5,29.62,North,0,0.0,0.0,66,0.00,CLR,,0.00,WeatherDisplay:10.37,2013-07-24 08:48:00,
2013-07-24 03:53:00,79.9,67.9,29.63,North,0,0.0,0.0,67,0.00,CLR,,0.00,WeatherDisplay:10.37,2013-07-24 08:53:00,
2013-07-24 03:58:00,79.9,67.9,29.63,North,0,0.0,0.0,67,0.00,CLR,,0.00,WeatherDisplay:10.37,2013-07-24 08:58:00,
2013-07-24 04:03:00,79.7,67.8,29.64,North,0,0.0,0.0,67,0.00,CLR,,0.00,WeatherDisplay:10.37,2013-07-24 09:03:00,
2013-07-24 04:08:00,79.7,68.2,29.64,North,0,0.0,0.0,68,0.00,CLR,,0.00,WeatherDisplay:10.37,2013-07-24 09:08:00,
2013-07-24 04:13:00,79.7,68.2,29.64,North,0,0.0,0.0,68,0.00,CLR,,0.00,WeatherDisplay:10.37,2013-07-24 09:13:00,
2013-07-24 04:18:00,79.5,68.0,29.64,North,0,0.0,0.0,68,0.00,CLR,,0.00,WeatherDisplay:10.37,2013-07-24 09:18:00,
2013-07-24 04:23:00,79.5,67.6,29.65,North,0,0.0,0.0,67,0.00,CLR,,0.00,WeatherDisplay:10.37,2013-07-24 09:23:00,
2013-07-24 04:28:00,79.5,68.0,29.66,North,0,0.0,0.0,68,0.00,CLR,,0.00,WeatherDisplay:10.37,2013-07-24 09:28:00,
2013-07-24 04:33:00,79.3,67.9,29.66,North,0,0.0,0.0,68,0.00,CLR,,0.00,WeatherDisplay:10.37,2013-07-24 09:33:00,
2013-07-24 04:38:00,79.3,67.9,29.67,North,0,0.0,0.0,68,0.00,CLR,,0.00,WeatherDisplay:10.37,2013-07-24 09:38:00,
2013-07-24 04:43:00,79.3,68.3,29.67,North,0,0.0,0.0,69,0.00,CLR,,0.00,WeatherDisplay:10.37,2013-07-24 09:43:00,
2013-07-24 04:48:00,79.3,68.3,29.67,North,0,0.0,0.0,69,0.00,CLR,,0.00,WeatherDisplay:10.37,2013-07-24 09:48:00,
2013-07-24 04:53:00,79.3,68.3,29.67,North,0,0.0,0.0,69,0.00,CLR,,0.00,WeatherDisplay:10.37,2013-07-24 09:53:00,
2013-07-24 04:58:00,79.3,68.3,29.67,North,0,0.0,0.0,69,0.00,CLR,,0.00,WeatherDisplay:10.37,2013-07-24 09:58:00,
2013-07-24 05:03:00,79.3,68.3,29.67,North,0,0.0,0.0,69,0.00,OVC,,0.00,WeatherDisplay:10.37,2013-07-24 10:03:00,
2013-07-24 05:08:00,79.2,68.5,29.68,North,0,0.0,0.0,70,0.00,OVC,,0.00,WeatherDisplay:10.37,2013-07-24 10:08:00,
2013-07-24 05:13:00,79.2,68.5,29.68,North,0,0.0,0.0,70,0.00,OVC,,0.00,WeatherDisplay:10.37,2013-07-24 10:13:00,
2013-07-24 05:18:00,79.2,68.9,29.68,North,0,0.0,0.0,71,0.00,OVC,,0.00,WeatherDisplay:10.37,2013-07-24 10:18:00,
2013-07-24 05:23:00,79.2,69.4,29.71,North,0,0.0,0.0,72,0.00,OVC,,0.00,WeatherDisplay:10.37,2013-07-24 10:23:00,
2013-07-24 05:28:00,79.2,68.9,29.72,North,0,0.0,0.0,71,0.03,RA,,0.03,WeatherDisplay:10.37,2013-07-24 10:28:00,
2013-07-24 05:33:00,79.7,69.0,29.73,North,0,0.0,0.0,70,0.03,RA,,0.03,WeatherDisplay:10.37,2013-07-24 10:33:00,
2013-07-24 05:38:00,80.2,69.6,29.74,North,0,0.0,0.0,70,0.03,OVC,,0.03,WeatherDisplay:10.37,2013-07-24 10:38:00,
2013-07-24 05:43:00,80.6,69.5,29.74,North,0,0.0,0.0,69,0.03,OVC,,0.03,WeatherDisplay:10.37,2013-07-24 10:43:00,
2013-07-24 05:48:00,80.2,69.6,29.74,North,0,0.0,0.0,70,0.03,OVC,,0.03,WeatherDisplay:10.37,2013-07-24 10:48:00,
2013-07-24 05:53:00,79.9,70.0,29.74,North,0,0.0,0.0,72,0.03,OVC,,0.03,WeatherDisplay:10.37,2013-07-24 10:53:00,
2013-07-24 05:58:00,79.2,69.4,29.74,North,0,0.0,0.0,72,0.03,OVC,,0.03,WeatherDisplay:10.37,2013-07-24 10:58:00,
2013-07-24 06:03:00,78.6,69.2,29.75,North,0,0.0,0.0,73,0.03,OVC,,0.03,WeatherDisplay:10.37,2013-07-24 11:03:00,
2013-07-24 06:08:00,78.1,69.1,29.75,North,0,0.0,0.0,74,0.03,OVC,,0.03,WeatherDisplay:10.37,2013-07-24 11:08:00,
2013-07-24 06:13:00,77.5,69.0,29.76,North,0,0.0,0.0,75,0.03,OVC,,0.03,WeatherDisplay:10.37,2013-07-24 11:13:00,
2013-07-24 06:18:00,77.2,68.6,29.75,North,0,0.0,0.0,75,0.03,OVC,,0.03,WeatherDisplay:10.37,2013-07-24 11:18:00,
2013-07-24 06:23:00,76.6,68.1,29.76,North,0,0.0,0.0,75,0.03,OVC,,0.03,WeatherDisplay:10.37,2013-07-24 11:23:00,
2013-07-24 06:29:00,76.3,67.8,29.76,North,0,0.0,0.0,75,0.00,OVC,,0.03,WeatherDisplay:10.37,2013-07-24 11:29:00,
2013-07-24 06:34:00,76.1,68.0,29.75,North,0,0.0,0.0,76,0.00,OVC,,0.03,WeatherDisplay:10.37,2013-07-24 11:34:00,
2013-07-24 06:39:00,75.9,67.4,29.75,North,0,0.0,0.0,75,0.00,OVC,,0.03,WeatherDisplay:10.37,2013-07-24 11:39:00,
2013-07-24 06:44:00,75.9,67.8,29.75,North,0,0.0,0.0,76,0.00,OVC,,0.03,WeatherDisplay:10.37,2013-07-24 11:44:00,
2013-07-24 06:49:00,75.7,67.6,29.75,North,0,0.0,0.0,76,0.00,OVC,,0.03,WeatherDisplay:10.37,2013-07-24 11:49:00,
2013-07-24 06:54:00,75.6,67.8,29.74,North,0,0.0,0.0,77,0.00,OVC,,0.03,WeatherDisplay:10.37,2013-07-24 11:54:00,
2013-07-24 06:59:00,75.4,67.7,29.74,North,0,0.0,0.0,77,0.00,OVC,,0.03,WeatherDisplay:10.37,2013-07-24 11:59:00,
2013-07-24 07:04:00,75.2,67.9,29.74,North,0,0.0,0.0,78,0.00,OVC,,0.03,WeatherDisplay:10.37,2013-07-24 12:04:00,
2013-07-24 07:09:00,75.2,67.9,29.74,North,0,0.0,0.0,78,0.00,OVC,,0.03,WeatherDisplay:10.37,2013-07-24 12:09:00,
2013-07-24 07:14:00,75.0,67.7,29.73,North,0,0.0,0.0,78,0.00,OVC,,0.03,WeatherDisplay:10.37,2013-07-24 12:14:00,
2013-07-24 07:19:00,75.2,67.9,29.74,North,0,0.0,0.0,78,0.00,OVC,,0.03,WeatherDisplay:10.37,2013-07-24 12:19:00,
2013-07-24 07:24:00,75.0,67.7,29.74,North,0,0.0,0.0,78,0.00,OVC,,0.03,WeatherDisplay:10.37,2013-07-24 12:24:00,
2013-07-24 07:29:00,75.0,67.7,29.74,North,0,0.0,0.0,78,0.00,OVC,,0.03,WeatherDisplay:10.37,2013-07-24 12:29:00,
2013-07-24 07:34:00,75.2,67.9,29.74,North,0,0.0,0.0,78,0.00,OVC,,0.03,WeatherDisplay:10.37,2013-07-24 12:34:00,
2013-07-24 07:39:00,75.2,68.2,29.75,North,0,0.0,0.0,79,0.00,OVC,,0.03,WeatherDisplay:10.37,2013-07-24 12:39:00,
2013-07-24 07:44:00,75.2,67.9,29.75,North,0,0.0,0.0,78,0.00,OVC,,0.03,WeatherDisplay:10.37,2013-07-24 12:44:00,
2013-07-24 07:49:00,75.2,67.9,29.75,North,0,0.0,0.0,78,0.00,OVC,,0.03,WeatherDisplay:10.37,2013-07-24 12:49:00,
2013-07-24 07:54:00,75.4,68.0,29.75,North,0,0.0,0.0,78,0.00,OVC,,0.03,WeatherDisplay:10.37,2013-07-24 12:54:00,
2013-07-24 07:59:00,75.6,68.2,29.75,North,0,0.0,0.0,78,0.00,OVC,,0.03,WeatherDisplay:10.37,2013-07-24 12:59:00,
2013-07-24 08:04:00,75.7,68.4,29.74,North,0,0.0,0.0,78,0.00,OVC,,0.03,WeatherDisplay:10.37,2013-07-24 13:04:00,
2013-07-24 08:09:00,75.9,68.9,29.75,North,0,0.0,0.0,79,0.00,OVC,,0.03,WeatherDisplay:10.37,2013-07-24 13:09:00,
2013-07-24 08:14:00,75.9,68.9,29.74,North,0,0.0,0.0,79,0.00,OVC,,0.03,WeatherDisplay:10.37,2013-07-24 13:14:00,
2013-07-24 08:19:00,76.1,69.1,29.74,North,0,0.0,0.0,79,0.00,OVC,,0.03,WeatherDisplay:10.37,2013-07-24 13:19:00,
2013-07-24 08:24:00,76.3,68.9,29.74,North,0,0.0,0.0,78,0.00,OVC,,0.03,WeatherDisplay:10.37,2013-07-24 13:24:00,
2013-07-24 08:29:00,76.5,69.1,29.74,North,0,0.0,0.0,78,0.00,OVC,,0.03,WeatherDisplay:10.37,2013-07-24 13:29:00,
2013-07-24 08:34:00,76.6,69.3,29.74,North,0,0.0,0.0,78,0.00,OVC,,0.03,WeatherDisplay:10.37,2013-07-24 13:34:00,
2013-07-24 08:39:00,76.8,69.4,29.74,North,0,0.0,0.0,78,0.00,OVC,,0.03,WeatherDisplay:10.37,2013-07-24 13:39:00,
2013-07-24 08:44:00,77.0,69.2,29.74,North,0,0.0,0.0,77,0.00,OVC,,0.03,WeatherDisplay:10.37,2013-07-24 13:44:00,
2013-07-24 08:49:00,77.0,69.2,29.75,North,0,0.0,0.0,77,0.00,OVC,,0.03,WeatherDisplay:10.37,2013-07-24 13:49:00,
2013-07-24 08:54:00,77.0,69.2,29.76,North,0,0.0,0.0,77,0.00,OVC,,0.03,WeatherDisplay:10.37,2013-07-24 13:54:00,
2013-07-24 08:59:00,77.4,69.6,29.77,North,0,0.0,0.0,77,0.00,OVC,,0.03,WeatherDisplay:10.37,2013-07-24 13:59:00,
2013-07-24 09:04:00,77.5,69.8,29.77,North,0,0.0,0.0,77,0.00,CLR,,0.03,WeatherDisplay:10.37,2013-07-24 14:04:00,
2013-07-24 09:09:00,77.7,69.5,29.77,North,0,0.0,0.0,76,0.00,CLR,,0.03,WeatherDisplay:10.37,2013-07-24 14:09:00,
2013-07-24 09:14:00,78.1,69.9,29.77,North,0,0.0,0.0,76,0.00,CLR,,0.03,WeatherDisplay:10.37,2013-07-24 14:14:00,
2013-07-24 09:19:00,78.3,70.1,29.77,North,0,0.0,0.0,76,0.00,CLR,,0.03,WeatherDisplay:10.37,2013-07-24 14:19:00,
2013-07-24 09:24:00,78.4,70.2,29.76,North,0,0.0,0.0,76,0.00,CLR,,0.03,WeatherDisplay:10.37,2013-07-24 14:24:00,
2013-07-24 09:29:00,78.8,70.2,29.77,North,0,0.0,0.0,75,0.00,CLR,,0.03,WeatherDisplay:10.37,2013-07-24 14:29:00,
2013-07-24 09:34:00,78.8,70.2,29.78,North,0,0.0,0.0,75,0.00,CLR,,0.03,WeatherDisplay:10.37,2013-07-24 14:34:00,
2013-07-24 09:39:00,79.0,70.4,29.79,North,0,0.0,0.0,75,0.00,CLR,,0.03,WeatherDisplay:10.37,2013-07-24 14:39:00,
2013-07-24 09:44:00,78.4,69.9,29.81,North,0,0.0,0.0,75,0.00,CLR,,0.03,WeatherDisplay:10.37,2013-07-24 14:44:00,
2013-07-24 09:49:00,77.9,69.3,29.81,North,0,0.0,0.0,75,0.00,CLR,,0.03,WeatherDisplay:10.37,2013-07-24 14:49:00,
2013-07-24 09:54:00,77.4,69.2,29.81,North,0,0.0,0.0,76,0.00,CLR,,0.03,WeatherDisplay:10.37,2013-07-24 14:54:00,
2013-07-24 09:59:00,76.8,69.1,29.81,North,0,0.0,0.0,77,0.00,CLR,,0.03,WeatherDisplay:10.37,2013-07-24 14:59:00,
2013-07-24 10:04:00,76.3,68.9,29.81,North,0,0.0,0.0,78,0.00,OVC,,0.03,WeatherDisplay:10.37,2013-07-24 15:04:00,
2013-07-24 10:09:00,76.1,69.5,29.81,North,0,0.0,0.0,80,0.00,OVC,,0.03,WeatherDisplay:10.37,2013-07-24 15:09:00,
2013-07-24 10:14:00,76.3,69.3,29.80,North,0,0.0,0.0,79,0.00,OVC,,0.03,WeatherDisplay:10.37,2013-07-24 15:14:00,
2013-07-24 10:19:00,76.1,69.1,29.80,North,0,0.0,0.0,79,0.00,OVC,,0.03,WeatherDisplay:10.37,2013-07-24 15:19:00,
2013-07-24 10:24:00,76.1,69.1,29.79,North,0,0.0,0.0,79,0.00,OVC,,0.03,WeatherDisplay:10.37,2013-07-24 15:24:00,
2013-07-24 10:29:00,75.9,68.9,29.78,North,0,0.0,0.0,79,0.00,OVC,,0.03,WeatherDisplay:10.37,2013-07-24 15:29:00,
2013-07-24 10:34:00,75.9,68.9,29.78,North,0,0.0,0.0,79,0.00,OVC,,0.03,WeatherDisplay:10.37,2013-07-24 15:34:00,
2013-07-24 10:39:00,75.9,68.9,29.77,North,0,0.0,0.0,79,0.00,OVC,,0.03,WeatherDisplay:10.37,2013-07-24 15:39:00,
2013-07-24 10:44:00,75.9,68.9,29.77,North,0,0.0,0.0,79,0.00,OVC,,0.03,WeatherDisplay:10.37,2013-07-24 15:44:00,
2013-07-24 10:49:00,76.1,69.5,29.76,North,0,0.0,0.0,80,0.00,OVC,,0.03,WeatherDisplay:10.37,2013-07-24 15:49:00,
2013-07-24 10:54:00,76.3,69.7,29.76,North,0,0.0,0.0,80,0.00,OVC,,0.03,WeatherDisplay:10.37,2013-07-24 15:54:00,
2013-07-24 10:57:00,76.5,69.5,29.76,North,0,0.0,0.0,79,0.00,OVC,,0.03,WeatherDisplay:10.37,2013-07-24 15:57:00,
2013-07-24 11:02:00,76.6,69.6,29.75,North,0,0.0,0.0,79,0.00,CLR,,0.03,WeatherDisplay:10.37,2013-07-24 16:02:00,
2013-07-24 11:07:00,77.0,70.4,29.74,North,0,0.0,0.0,80,0.00,CLR,,0.03,WeatherDisplay:10.37,2013-07-24 16:07:00,
2013-07-24 11:12:00,77.0,70.4,29.74,North,0,0.0,0.0,80,0.00,CLR,,0.03,WeatherDisplay:10.37,2013-07-24 16:12:00,
2013-07-24 11:17:00,77.2,70.9,29.73,North,0,0.0,0.0,81,0.00,CLR,,0.03,WeatherDisplay:10.37,2013-07-24 16:17:00,
2013-07-24 11:22:00,77.5,71.6,29.72,North,0,0.0,0.0,82,0.00,CLR,,0.03,WeatherDisplay:10.37,2013-07-24 16:22:00,
2013-07-24 11:27:00,78.1,71.8,29.72,North,0,0.0,0.0,81,0.00,CLR,,0.03,WeatherDisplay:10.37,2013-07-24 16:27:00,
2013-07-24 11:32:00,78.4,71.8,29.71,North,0,0.0,0.0,80,0.00,CLR,,0.03,WeatherDisplay:10.37,2013-07-24 16:32:00,
2013-07-24 11:37:00,78.6,71.6,29.70,North,0,0.0,0.0,79,0.00,CLR,,0.03,WeatherDisplay:10.37,2013-07-24 16:37:00,
2013-07-24 11:42:00,79.0,71.5,29.70,North,0,0.0,0.0,78,0.00,CLR,,0.03,WeatherDisplay:10.37,2013-07-24 16:42:00,
2013-07-24 11:47:00,79.2,71.3,29.69,North,0,0.0,0.0,77,0.00,CLR,,0.03,WeatherDisplay:10.37,2013-07-24 16:47:00,
2013-07-24 11:52:00,79.2,71.3,29.68,North,0,0.0,0.0,77,0.00,CLR,,0.03,WeatherDisplay:10.37,2013-07-24 16:52:00,
2013-07-24 11:57:00,79.3,71.1,29.67,North,0,0.0,0.0,76,0.00,CLR,,0.03,WeatherDisplay:10.37,2013-07-24 16:57:00,
2013-07-24 12:02:00,79.3,71.1,29.67,North,0,0.0,0.0,76,0.00,CLR,,0.03,WeatherDisplay:10.37,2013-07-24 17:02:00,
2013-07-24 12:07:00,79.5,70.9,29.67,North,0,0.0,0.0,75,0.00,CLR,,0.03,WeatherDisplay:10.37,2013-07-24 17:07:00,
2013-07-24 12:12:00,79.5,71.3,29.66,North,0,0.0,0.0,76,0.00,CLR,,0.03,WeatherDisplay:10.37,2013-07-24 17:12:00,
2013-07-24 12:17:00,79.9,71.2,29.66,North,0,0.0,0.0,75,0.00,CLR,,0.03,WeatherDisplay:10.37,2013-07-24 17:17:00,
2013-07-24 12:22:00,80.2,71.6,29.66,North,0,0.0,0.0,75,0.00,CLR,,0.03,WeatherDisplay:10.37,2013-07-24 17:22:00,
2013-07-24 12:27:00,80.4,71.8,29.66,North,0,0.0,0.0,75,0.00,CLR,,0.03,WeatherDisplay:10.37,2013-07-24 17:27:00,
2013-07-24 12:32:00,80.6,71.5,29.66,North,0,0.0,0.0,74,0.00,CLR,,0.03,WeatherDisplay:10.37,2013-07-24 17:32:00,
2013-07-24 12:37:00,81.0,71.9,29.66,North,0,0.0,0.0,74,0.00,CLR,,0.03,WeatherDisplay:10.37,2013-07-24 17:37:00,
2013-07-24 12:42:00,81.3,72.2,29.67,North,0,0.0,0.0,74,0.00,CLR,,0.03,WeatherDisplay:10.37,2013-07-24 17:42:00,
2013-07-24 12:48:00,81.7,72.2,29.67,North,0,0.0,0.0,73,0.00,CLR,,0.03,WeatherDisplay:10.37,2013-07-24 17:48:00,
2013-07-24 12:53:00,81.9,71.9,29.66,North,0,0.0,0.0,72,0.00,CLR,,0.03,WeatherDisplay:10.37,2013-07-24 17:53:00,
2013-07-24 12:58:00,82.0,72.5,29.66,North,0,0.0,0.0,73,0.00,CLR,,0.03,WeatherDisplay:10.37,2013-07-24 17:58:00,
2013-07-24 13:03:00,82.0,72.1,29.66,North,0,0.0,0.0,72,0.00,CLR,,0.03,WeatherDisplay:10.37,2013-07-24 18:03:00,
2013-07-24 13:08:00,82.2,72.3,29.66,North,0,0.0,0.0,72,0.00,CLR,,0.03,WeatherDisplay:10.37,2013-07-24 18:08:00,
2013-07-24 13:13:00,82.4,72.5,29.66,North,0,0.0,0.0,72,0.00,CLR,,0.03,WeatherDisplay:10.37,2013-07-24 18:13:00,
2013-07-24 13:18:00,82.6,72.2,29.66,North,0,0.0,0.0,71,0.00,CLR,,0.03,WeatherDisplay:10.37,2013-07-24 18:18:00,
2013-07-24 13:23:00,82.8,72.4,29.66,North,0,0.0,0.0,71,0.00,CLR,,0.03,WeatherDisplay:10.37,2013-07-24 18:23:00,
2013-07-24 13:28:00,83.1,72.7,29.67,North,0,0.0,0.0,71,0.00,CLR,,0.03,WeatherDisplay:10.37,2013-07-24 18:28:00,
2013-07-24 13:33:00,83.3,72.5,29.67,North,0,0.0,0.0,70,0.00,CLR,,0.03,WeatherDisplay:10.37,2013-07-24 18:33:00,
2013-07-24 13:38:00,83.7,72.8,29.67,North,0,0.0,0.0,70,0.00,CLR,,0.03,WeatherDisplay:10.37,2013-07-24 18:38:00,
2013-07-24 13:43:00,83.8,72.6,29.67,North,0,0.0,0.0,69,0.00,CLR,,0.03,WeatherDisplay:10.37,2013-07-24 18:43:00,
2013-07-24 13:48:00,83.8,72.6,29.68,North,0,0.0,0.0,69,0.00,CLR,,0.03,WeatherDisplay:10.37,2013-07-24 18:48:00,
2013-07-24 13:53:00,84.2,73.3,29.68,North,0,0.0,0.0,70,0.00,CLR,,0.03,WeatherDisplay:10.37,2013-07-24 18:53:00,
2013-07-24 13:58:00,84.6,73.3,29.68,North,0,0.0,0.0,69,0.00,CLR,,0.03,WeatherDisplay:10.37,2013-07-24 18:58:00,
2013-07-24 14:03:00,84.9,73.2,29.68,North,0,0.0,0.0,68,0.00,CLR,,0.03,WeatherDisplay:10.37,2013-07-24 19:03:00,
2013-07-24 14:08:00,85.3,73.1,29.67,North,0,0.0,0.0,67,0.00,CLR,,0.03,WeatherDisplay:10.37,2013-07-24 19:08:00,
2013-07-24 14:13:00,86.0,73.3,29.68,North,0,0.0,0.0,66,0.00,CLR,,0.03,WeatherDisplay:10.37,2013-07-24 19:13:00,
2013-07-24 14:18:00,86.4,73.2,29.68,North,0,0.0,0.0,65,0.00,CLR,,0.03,WeatherDisplay:10.37,2013-07-24 19:18:00,
2013-07-24 14:23:00,86.9,73.7,29.68,North,0,0.0,0.0,65,0.00,CLR,,0.03,WeatherDisplay:10.37,2013-07-24 19:23:00,
2013-07-24 14:28:00,87.4,73.3,29.69,North,0,0.0,0.0,63,0.00,CLR,,0.03,WeatherDisplay:10.37,2013-07-24 19:28:00,
2013-07-24 14:33:00,87.6,72.5,29.69,North,0,0.0,0.0,61,0.00,CLR,,0.03,WeatherDisplay:10.37,2013-07-24 19:33:00,
2013-07-24 14:38:00,88.0,73.8,29.69,North,0,0.0,0.0,63,0.00,CLR,,0.03,WeatherDisplay:10.37,2013-07-24 19:38:00,
2013-07-24 14:43:00,88.5,72.9,29.69,North,0,0.0,0.0,60,0.00,CLR,,0.03,WeatherDisplay:10.37,2013-07-24 19:43:00,
2013-07-24 14:48:00,88.9,73.2,29.69,North,0,0.0,0.0,60,0.00,CLR,,0.03,WeatherDisplay:10.37,2013-07-24 19:48:00,
2013-07-24 14:53:00,89.2,71.5,29.69,North,0,0.0,0.0,56,0.00,CLR,,0.03,WeatherDisplay:10.37,2013-07-24 19:53:00,
2013-07-24 14:58:00,89.4,71.1,29.69,North,0,0.0,0.0,55,0.00,CLR,,0.03,WeatherDisplay:10.37,2013-07-24 19:58:00,
2013-07-24 15:03:00,89.6,71.3,29.69,North,0,0.0,0.0,55,0.00,SCT,,0.03,WeatherDisplay:10.37,2013-07-24 20:03:00,
2013-07-24 15:08:00,89.6,71.3,29.69,North,0,0.0,0.0,55,0.00,SCT,,0.03,WeatherDisplay:10.37,2013-07-24 20:08:00,
2013-07-24 15:13:00,89.8,72.5,29.69,North,0,0.0,0.0,57,0.00,SCT,,0.03,WeatherDisplay:10.37,2013-07-24 20:13:00,
2013-07-24 15:18:00,90.1,70.1,29.69,North,0,0.0,0.0,52,0.00,SCT,,0.03,WeatherDisplay:10.37,2013-07-24 20:18:00,
2013-07-24 15:23:00,90.5,71.6,29.69,North,0,0.0,0.0,54,0.00,SCT,,0.03,WeatherDisplay:10.37,2013-07-24 20:23:00,
2013-07-24 15:28:00,90.7,70.6,29.69,North,0,0.0,0.0,52,0.00,SCT,,0.03,WeatherDisplay:10.37,2013-07-24 20:28:00,
2013-07-24 15:33:00,90.9,70.2,29.69,North,0,0.0,0.0,51,0.00,SCT,,0.03,WeatherDisplay:10.37,2013-07-24 20:33:00,
2013-07-24 15:38:00,91.0,70.4,29.69,North,0,0.0,0.0,51,0.00,SCT,,0.03,WeatherDisplay:10.37,2013-07-24 20:38:00,
2013-07-24 15:43:00,91.0,68.0,29.68,North,0,0.0,0.0,47,0.00,SCT,,0.03,WeatherDisplay:10.37,2013-07-24 20:43:00,
2013-07-24 15:48:00,91.4,69.0,29.68,North,0,0.0,0.0,48,0.00,SCT,,0.03,WeatherDisplay:10.37,2013-07-24 20:48:00,
2013-07-24 15:53:00,91.8,69.3,29.68,North,0,0.0,0.0,48,0.00,SCT,,0.03,WeatherDisplay:10.37,2013-07-24 20:53:00,
2013-07-24 15:58:00,91.9,70.6,29.68,North,0,0.0,0.0,50,0.00,SCT,,0.03,WeatherDisplay:10.37,2013-07-24 20:58:00,
2013-07-24 16:03:00,92.3,69.8,29.68,North,0,0.0,0.0,48,0.00,CLR,,0.03,WeatherDisplay:10.37,2013-07-24 21:03:00,
2013-07-24 16:08:00,92.3,69.8,29.68,North,0,0.0,0.0,48,0.00,CLR,,0.03,WeatherDisplay:10.37,2013-07-24 21:08:00,
2013-07-24 16:13:00,92.5,70.5,29.68,North,0,0.0,0.0,49,0.00,CLR,,0.03,WeatherDisplay:10.37,2013-07-24 21:13:00,
2013-07-24 16:18:00,92.5,70.5,29.67,North,0,0.0,0.0,49,0.00,CLR,,0.03,WeatherDisplay:10.37,2013-07-24 21:18:00,
2013-07-24 16:23:00,92.8,70.9,29.67,North,0,0.0,0.0,49,0.00,CLR,,0.03,WeatherDisplay:10.37,2013-07-24 21:23:00,
2013-07-24 16:28:00,93.0,70.4,29.67,North,0,0.0,0.0,48,0.00,CLR,,0.03,WeatherDisplay:10.37,2013-07-24 21:28:00,
2013-07-24 16:33:00,93.0,70.4,29.67,North,0,0.0,0.0,48,0.00,CLR,,0.03,WeatherDisplay:10.37,2013-07-24 21:33:00,
2013-07-24 16:38:00,93.2,71.2,29.67,North,0,0.0,0.0,49,0.00,CLR,,0.03,WeatherDisplay:10.37,2013-07-24 21:38:00,
2013-07-24 16:43:00,93.2,70.6,29.67,North,0,0.0,0.0,48,0.00,CLR,,0.03,WeatherDisplay:10.37,2013-07-24 21:43:00,
2013-07-24 16:48:00,93.6,71.5,29.67,North,0,0.0,0.0,49,0.00,CLR,,0.03,WeatherDisplay:10.37,2013-07-24 21:48:00,
2013-07-24 16:53:00,93.9,71.9,29.67,North,0,0.0,0.0,49,0.00,CLR,,0.03,WeatherDisplay:10.37,2013-07-24 21:53:00,
2013-07-24 16:58:00,94.3,71.6,29.67,North,0,0.0,0.0,48,0.00,CLR,,0.03,WeatherDisplay:10.37,2013-07-24 21:58:00,
2013-07-24 17:03:00,94.3,71.6,29.67,North,0,0.0,0.0,48,0.00,CLR,,0.03,WeatherDisplay:10.37,2013-07-24 22:03:00,
2013-07-24 17:08:00,94.3,72.2,29.67,North,0,0.0,0.0,49,0.00,CLR,,0.03,WeatherDisplay:10.37,2013-07-24 22:08:00,
2013-07-24 17:14:00,94.3,71.6,29.67,North,0,0.0,0.0,48,0.00,CLR,,0.03,WeatherDisplay:10.37,2013-07-24 22:14:00,
2013-07-24 17:19:00,94.3,72.2,29.67,North,0,0.0,0.0,49,0.00,CLR,,0.03,WeatherDisplay:10.37,2013-07-24 22:19:00,
2013-07-24 17:24:00,94.3,72.2,29.67,North,0,0.0,0.0,49,0.00,CLR,,0.03,WeatherDisplay:10.37,2013-07-24 22:24:00,
2013-07-24 17:29:00,93.9,71.9,29.67,North,0,0.0,0.0,49,0.00,CLR,,0.03,WeatherDisplay:10.37,2013-07-24 22:29:00,
2013-07-24 17:34:00,93.7,71.7,29.67,North,0,0.0,0.0,49,0.00,CLR,,0.03,WeatherDisplay:10.37,2013-07-24 22:34:00,
2013-07-24 17:39:00,93.6,72.1,29.67,North,0,0.0,0.0,50,0.00,CLR,,0.03,WeatherDisplay:10.37,2013-07-24 22:39:00,
2013-07-24 17:44:00,93.9,72.5,29.67,North,0,0.0,0.0,50,0.00,CLR,,0.03,WeatherDisplay:10.37,2013-07-24 22:44:00,
2013-07-24 17:49:00,93.7,72.3,29.67,North,0,0.0,0.0,50,0.00,CLR,,0.03,WeatherDisplay:10.37,2013-07-24 22:49:00,
2013-07-24 17:54:00,93.6,72.1,29.67,North,0,0.0,0.0,50,0.00,CLR,,0.03,WeatherDisplay:10.37,2013-07-24 22:54:00,
2013-07-24 17:59:00,93.9,72.5,29.67,North,0,0.0,0.0,50,0.00,CLR,,0.03,WeatherDisplay:10.37,2013-07-24 22:59:00,
2013-07-24 18:04:00,93.9,71.9,29.67,North,0,0.0,0.0,49,0.00,CLR,,0.03,WeatherDisplay:10.37,2013-07-24 23:04:00,
2013-07-24 18:09:00,94.3,72.2,29.67,North,0,0.0,0.0,49,0.00,CLR,,0.03,WeatherDisplay:10.37,2013-07-24 23:09:00,
2013-07-24 18:14:00,94.5,72.3,29.67,North,0,0.0,0.0,49,0.00,CLR,,0.03,WeatherDisplay:10.37,2013-07-24 23:14:00,
2013-07-24 18:19:00,94.5,72.3,29.67,North,0,0.0,0.0,49,0.00,CLR,,0.03,WeatherDisplay:10.37,2013-07-24 23:19:00,
2013-07-24 18:24:00,94.3,72.2,29.67,North,0,0.0,0.0,49,0.00,CLR,,0.03,WeatherDisplay:10.37,2013-07-24 23:24:00,
2013-07-24 18:29:00,94.3,72.2,29.67,North,0,0.0,0.0,49,0.00,CLR,,0.03,WeatherDisplay:10.37,2013-07-24 23:29:00,
2013-07-24 18:34:00,94.3,72.8,29.67,North,0,0.0,0.0,50,0.00,CLR,,0.03,WeatherDisplay:10.37,2013-07-24 23:34:00,
2013-07-24 18:39:00,94.3,72.8,29.67,North,0,0.0,0.0,50,0.00,CLR,,0.03,WeatherDisplay:10.37,2013-07-24 23:39:00,
2013-07-24 18:44:00,94.1,72.6,29.67,North,0,0.0,0.0,50,0.00,CLR,,0.03,WeatherDisplay:10.37,2013-07-24 23:44:00,
2013-07-24 18:49:00,93.9,72.5,29.67,North,0,0.0,0.0,50,0.00,CLR,,0.03,WeatherDisplay:10.37,2013-07-24 23:49:00,
2013-07-24 18:54:00,93.9,72.5,29.67,North,0,0.0,0.0,50,0.00,CLR,,0.03,WeatherDisplay:10.37,2013-07-24 23:54:00,
2013-07-24 18:59:00,93.9,73.0,29.67,North,0,0.0,0.0,51,0.00,CLR,,0.03,WeatherDisplay:10.37,2013-07-24 23:59:00,
2013-07-24 19:04:00,93.7,72.9,29.68,North,0,0.0,0.0,51,0.00,CLR,,0.03,WeatherDisplay:10.37,2013-07-25 00:04:00,
2013-07-24 19:09:00,93.4,73.1,29.67,North,0,0.0,0.0,52,0.00,CLR,,0.03,WeatherDisplay:10.37,2013-07-25 00:09:00,
2013-07-24 19:14:00,93.2,73.0,29.68,North,0,0.0,0.0,52,0.00,CLR,,0.03,WeatherDisplay:10.37,2013-07-25 00:14:00,
2013-07-24 19:19:00,92.8,72.6,29.68,North,0,0.0,0.0,52,0.00,CLR,,0.03,WeatherDisplay:10.37,2013-07-25 00:19:00,
2013-07-24 19:24:00,92.5,72.9,29.68,North,0,0.0,0.0,53,0.00,CLR,,0.03,WeatherDisplay:10.37,2013-07-25 00:24:00,
2013-07-24 19:29:00,92.1,73.1,29.68,North,0,0.0,0.0,54,0.00,CLR,,0.03,WeatherDisplay:10.37,2013-07-25 00:29:00,
2013-07-24 19:34:00,91.8,72.7,29.67,North,0,0.0,0.0,54,0.00,CLR,,0.03,WeatherDisplay:10.37,2013-07-25 00:34:00,
2013-07-24 19:39:00,91.4,72.4,29.68,North,0,0.0,0.0,54,0.00,CLR,,0.03,WeatherDisplay:10.37,2013-07-25 00:39:00,
2013-07-24 19:44:00,91.0,72.6,29.68,North,0,0.0,0.0,55,0.00,CLR,,0.03,WeatherDisplay:10.37,2013-07-25 00:44:00,
2013-07-24 19:49:00,90.5,72.7,29.68,North,0,0.0,0.0,56,0.00,CLR,,0.03,WeatherDisplay:10.37,2013-07-25 00:49:00,
2013-07-24 19:54:00,90.0,72.7,29.68,North,0,0.0,0.0,57,0.00,CLR,,0.03,WeatherDisplay:10.37,2013-07-25 00:54:00,
2013-07-24 19:59:00,89.4,72.7,29.69,North,0,0.0,0.0,58,0.00,CLR,,0.03,WeatherDisplay:10.37,2013-07-25 00:59:00,
2013-07-24 20:04:00,89.1,72.4,29.69,North,0,0.0,0.0,58,0.00,CLR,,0.03,WeatherDisplay:10.37,2013-07-25 01:04:00,
2013-07-24 20:09:00,88.9,72.7,29.69,North,0,0.0,0.0,59,0.00,CLR,,0.03,WeatherDisplay:10.37,2013-07-25 01:09:00,
2013-07-24 20:14:00,88.5,72.4,29.69,North,0,0.0,0.0,59,0.00,CLR,,0.03,WeatherDisplay:10.37,2013-07-25 01:14:00,
2013-07-24 20:19:00,88.2,72.0,29.69,North,0,0.0,0.0,59,0.00,CLR,,0.03,WeatherDisplay:10.37,2013-07-25 01:19:00,
2013-07-24 20:24:00,87.8,72.2,29.69,North,0,0.0,0.0,60,0.00,CLR,,0.03,WeatherDisplay:10.37,2013-07-25 01:24:00,
2013-07-24 20:29:00,87.3,72.2,29.69,North,0,0.0,0.0,61,0.00,CLR,,0.03,WeatherDisplay:10.37,2013-07-25 01:29:00,
2013-07-24 20:34:00,86.9,71.8,29.70,North,0,0.0,0.0,61,0.00,CLR,,0.03,WeatherDisplay:10.37,2013-07-25 01:34:00,
2013-07-24 20:39:00,86.5,72.0,29.70,North,0,0.0,0.0,62,0.00,CLR,,0.03,WeatherDisplay:10.37,2013-07-25 01:39:00,
2013-07-24 20:44:00,86.2,71.6,29.70,North,0,0.0,0.0,62,0.00,CLR,,0.03,WeatherDisplay:10.37,2013-07-25 01:44:00,
2013-07-24 20:49:00,86.0,71.9,29.70,North,0,0.0,0.0,63,0.00,CLR,,0.03,WeatherDisplay:10.37,2013-07-25 01:49:00,
2013-07-24 20:54:00,85.6,71.6,29.70,North,0,0.0,0.0,63,0.00,CLR,,0.03,WeatherDisplay:10.37,2013-07-25 01:54:00,
2013-07-24 20:59:00,85.5,71.4,29.70,North,0,0.0,0.0,63,0.00,CLR,,0.03,WeatherDisplay:10.37,2013-07-25 01:59:00,
2013-07-24 21:04:00,85.1,71.5,29.70,North,0,0.0,0.0,64,0.00,CLR,,0.03,WeatherDisplay:10.37,2013-07-25 02:04:00,
2013-07-24 21:09:00,84.9,71.4,29.70,North,0,0.0,0.0,64,0.00,CLR,,0.03,WeatherDisplay:10.37,2013-07-25 02:09:00,
2013-07-24 21:14:00,84.7,71.7,29.70,North,0,0.0,0.0,65,0.00,CLR,,0.03,WeatherDisplay:10.37,2013-07-25 02:14:00,
2013-07-24 21:19:00,84.6,71.5,29.70,North,0,0.0,0.0,65,0.00,CLR,,0.03,WeatherDisplay:10.37,2013-07-25 02:19:00,
2013-07-24 21:24:00,84.4,71.3,29.71,North,0,0.0,0.0,65,0.00,CLR,,0.03,WeatherDisplay:10.37,2013-07-25 02:24:00,
2013-07-24 21:29:00,84.4,71.3,29.71,North,0,0.0,0.0,65,0.00,CLR,,0.03,WeatherDisplay:10.37,2013-07-25 02:29:00,
2013-07-24 21:34:00,84.4,71.3,29.71,North,0,0.0,0.0,65,0.00,CLR,,0.03,WeatherDisplay:10.37,2013-07-25 02:34:00,
2013-07-24 21:39:00,84.2,71.2,29.71,North,0,0.0,0.0,65,0.00,CLR,,0.03,WeatherDisplay:10.37,2013-07-25 02:39:00,
2013-07-24 21:44:00,84.2,71.2,29.71,North,0,0.0,0.0,65,0.00,CLR,,0.03,WeatherDisplay:10.37,2013-07-25 02:44:00,
2013-07-24 21:49:00,84.2,71.6,29.71,North,0,0.0,0.0,66,0.00,CLR,,0.03,WeatherDisplay:10.37,2013-07-25 02:49:00,
2013-07-24 21:54:00,84.0,71.4,29.72,North,0,0.0,0.0,66,0.00,CLR,,0.03,WeatherDisplay:10.37,2013-07-25 02:54:00,
2013-07-24 21:59:00,83.8,71.3,29.72,North,0,0.0,0.0,66,0.00,CLR,,0.03,WeatherDisplay:10.37,2013-07-25 02:59:00,
2013-07-24 22:05:00,83.8,71.3,29.72,North,0,0.0,0.0,66,0.00,CLR,,0.03,WeatherDisplay:10.37,2013-07-25 03:05:00,
2013-07-24 22:10:00,83.7,71.1,29.72,North,0,0.0,0.0,66,0.00,CLR,,0.03,WeatherDisplay:10.37,2013-07-25 03:10:00,
2013-07-24 22:15:00,83.5,70.9,29.72,North,0,0.0,0.0,66,0.00,CLR,,0.03,WeatherDisplay:10.37,2013-07-25 03:15:00,
2013-07-24 22:20:00,83.5,71.4,29.72,North,0,0.0,0.0,67,0.00,CLR,,0.03,WeatherDisplay:10.37,2013-07-25 03:20:00,
2013-07-24 22:25:00,83.3,71.2,29.72,North,0,0.0,0.0,67,0.00,CLR,,0.03,WeatherDisplay:10.37,2013-07-25 03:25:00,
2013-07-24 22:30:00,83.3,71.2,29.72,North,0,0.0,0.0,67,0.00,CLR,,0.03,WeatherDisplay:10.37,2013-07-25 03:30:00,
2013-07-24 22:35:00,83.1,71.0,29.73,North,0,0.0,0.0,67,0.00,CLR,,0.03,WeatherDisplay:10.37,2013-07-25 03:35:00,
2013-07-24 22:41:00,82.9,70.9,29.73,North,0,0.0,0.0,67,0.00,CLR,,0.03,WeatherDisplay:10.37,2013-07-25 03:41:00,
2013-07-24 22:46:00,82.6,70.9,29.74,North,0,0.0,0.0,68,0.00,CLR,,0.03,WeatherDisplay:10.37,2013-07-25 03:46:00,
2013-07-24 22:52:00,82.0,70.0,29.74,North,0,0.0,0.0,67,0.00,CLR,,0.03,WeatherDisplay:10.37,2013-07-25 03:52:00,
2013-07-24 22:57:00,81.9,70.3,29.74,North,0,0.0,0.0,68,0.00,CLR,,0.03,WeatherDisplay:10.37,2013-07-25 03:57:00,
2013-07-24 23:01:00,81.9,70.3,29.74,North,0,0.0,0.0,68,0.00,CLR,,0.03,WeatherDisplay:10.37,2013-07-25 04:01:00,
2013-07-24 23:02:00,81.9,70.3,29.74,North,0,0.0,0.0,68,0.00,CLR,,0.03,WeatherDisplay:10.37,2013-07-25 04:02:00,
2013-07-24 23:07:00,81.5,70.3,29.74,North,0,0.0,0.0,69,0.00,CLR,,0.03,WeatherDisplay:10.37,2013-07-25 04:07:00,
2013-07-24 23:12:00,81.1,70.0,29.74,North,0,0.0,0.0,69,0.00,CLR,,0.03,WeatherDisplay:10.37,2013-07-25 04:12:00,
2013-07-24 23:17:00,81.0,70.3,29.74,North,0,0.0,0.0,70,0.00,CLR,,0.03,WeatherDisplay:10.37,2013-07-25 04:17:00,
2013-07-24 23:22:00,80.8,70.1,29.74,North,0,0.0,0.0,70,0.00,CLR,,0.03,WeatherDisplay:10.37,2013-07-25 04:22:00,
2013-07-24 23:27:00,80.8,70.1,29.74,North,0,0.0,0.0,70,0.00,CLR,,0.03,WeatherDisplay:10.37,2013-07-25 04:27:00,
2013-07-24 23:32:00,80.6,69.9,29.74,North,0,0.0,0.0,70,0.00,CLR,,0.03,WeatherDisplay:10.37,2013-07-25 04:32:00,
2013-07-24 23:37:00,80.4,69.7,29.75,North,0,0.0,0.0,70,0.00,CLR,,0.03,WeatherDisplay:10.37,2013-07-25 04:37:00,
2013-07-24 23:42:00,80.4,70.2,29.75,North,0,0.0,0.0,71,0.00,CLR,,0.03,WeatherDisplay:10.37,2013-07-25 04:42:00,
2013-07-24 23:47:00,80.4,69.7,29.75,North,0,0.0,0.0,70,0.00,CLR,,0.03,WeatherDisplay:10.37,2013-07-25 04:47:00,
2013-07-24 23:52:00,80.2,70.0,29.75,North,0,0.0,0.0,71,0.00,CLR,,0.03,WeatherDisplay:10.37,2013-07-25 04:52:00,
2013-07-24 23:57:00,80.2,70.0,29.74,North,0,0.0,0.0,71,0.00,CLR,,0.03,WeatherDisplay:10.37,2013-07-25 04:57:00,